New Bern, NC

1:09 AM EST on December 10, 2019 (GMT -0500)
Craven County Regional

Weather History for KEWN - August, 2019

Change the Weather History Date:

Monday, August 26, 2019

  Actual Average Record
Temperature  
Mean Temperature 74 °F 78 °F  
Max Temperature 82 °F 87 °F 96 °F (1954)
Min Temperature 66 °F 70 °F 59 °F (1951)
Degree Days  
Heating Degree Days 0 0  
Month to date heating degree days 0 0  
Since 1 June heating degree days 0 1  
Since 1 July heating degree days 0 0  
Cooling Degree Days 10 13  
Month to date cooling degree days 403 374  
Year to date cooling degree days 1722 1464  
Since 1 June cooling degree days 1303 1221  
Growing Degree Days 24 (Base 50)    
Moisture  
Dew Point 68 °F    
Average Humidity 85    
Maximum Humidity 100    
Minimum Humidity 65    
Precipitation  
Precipitation 0.00 in 0.21 in 3.30 in (2011)
Month to date precipitation 5.50 5.67  
Year to date precipitation 28.44 35.82  
Snow  
Snow 0.00 in - - ()
Month to date snowfall 0.0  
Since 1 July snowfall 0.0  
Snow Depth 0.00 in    
Sea Level Pressure  
Sea Level Pressure 30.05 in    
Wind  
Wind Speed 9 mph ()    
Max Wind Speed 16 mph    
Max Gust Speed 22 mph    
Visibility 10.0 miles    
Events      
T = Trace of Precipitation, MM = Missing Value Source: Averaged Metar Reports

Daily Weather History Graph

Daily Weather History Graph

Search for Another Location

Airport or City:

Astronomy

Aug. 26, 2019 Rise Set
Actual Time 6:36 AM EDT 7:43 PM EDT
Civil Twilight 6:09 AM EDT 8:09 PM EDT
Nautical Twilight 5:38 AM EDT 8:40 PM EDT
Astronomical Twilight 5:06 AM EDT 9:12 PM EDT
Moon 2:07 AM EDT (8/26) 4:56 PM EDT (8/26)
Length of Visible Light 13h 59m
Length of Day
13h 07m
Waning Crescent, 19% of the Moon is Illuminated
Aug 26
Waning Crescent
Aug 30
New
Sep 5
First Quarter
Sep 14
Full
Sep 21
Last Quarter

Hourly Weather History & Observations

Time (EDT) Temp. Heat Index Dew Point Humidity Pressure Visibility Wind Dir Wind Speed Gust Speed Precip Events Conditions
12:54 AM 69.1 °F - 66.0 °F 90% 30.08 in 10.0 mi NNE 8.1 mph - N/A   Clear
2:54 AM 68.0 °F - 66.9 °F 96% 30.05 in 10.0 mi NNE 9.2 mph - N/A   Overcast
3:07 AM 68.0 °F - 66.0 °F 93% 30.05 in 10.0 mi North 10.4 mph - N/A   Overcast
3:54 AM 68.0 °F - 66.0 °F 93% 30.05 in 10.0 mi NNE 8.1 mph - N/A   Overcast
4:04 AM 68.0 °F - 66.0 °F 93% 30.04 in 10.0 mi NNE 9.2 mph - N/A   Overcast
4:33 AM 68.0 °F - 66.0 °F 93% 30.04 in 10.0 mi NNE 9.2 mph - N/A   Overcast
4:54 AM 68.0 °F - 66.0 °F 93% 30.04 in 10.0 mi NNE 8.1 mph - N/A   Overcast
5:05 AM 68.0 °F - 66.0 °F 93% 30.05 in 10.0 mi NNE 8.1 mph - N/A   Overcast
5:50 AM 66.2 °F - 66.2 °F 100% 30.05 in 10.0 mi NNE 10.4 mph - N/A   Mostly Cloudy
5:54 AM 66.9 °F - 66.0 °F 97% 30.05 in 10.0 mi North 9.2 mph - N/A   Mostly Cloudy
6:01 AM 66.9 °F - 66.0 °F 97% 30.05 in 10.0 mi NNE 9.2 mph - N/A   Mostly Cloudy
6:11 AM 66.9 °F - 66.0 °F 97% 30.05 in 10.0 mi NNE 9.2 mph - N/A   Mostly Cloudy
6:35 AM 66.9 °F - 66.0 °F 97% 30.06 in 10.0 mi North 10.4 mph - N/A   Overcast
6:54 AM 66.9 °F - 66.0 °F 97% 30.06 in 10.0 mi North 8.1 mph - N/A   Overcast
7:54 AM 68.0 °F - 66.0 °F 93% 30.07 in 10.0 mi NNE 12.7 mph - N/A   Mostly Cloudy
8:21 AM 69.1 °F - 66.0 °F 90% 30.08 in 10.0 mi North 9.2 mph - N/A   Mostly Cloudy
8:28 AM 69.1 °F - 66.0 °F 90% 30.08 in 10.0 mi North 8.1 mph - N/A   Mostly Cloudy
8:54 AM 71.1 °F - 66.9 °F 87% 30.08 in 10.0 mi NNE 13.8 mph - N/A   Scattered Clouds
9:51 AM 73.4 °F - 66.2 °F 78% 30.08 in 10.0 mi North 13.8 mph - N/A   Mostly Cloudy
9:54 AM 73.0 °F - 66.9 °F 81% 30.08 in 10.0 mi NNE 13.8 mph - N/A   Mostly Cloudy
10:23 AM 75.0 °F - 66.9 °F 76% 30.08 in 10.0 mi NNE 13.8 mph - N/A   Scattered Clouds
10:54 AM 75.0 °F - 66.9 °F 76% 30.08 in 10.0 mi North 13.8 mph - N/A   Mostly Cloudy
11:19 AM 78.1 °F - 69.1 °F 74% 30.07 in 10.0 mi NE 13.8 mph - N/A   Scattered Clouds
11:30 AM 77.0 °F - 68.0 °F 74% 30.07 in 10.0 mi NNE 11.5 mph - N/A   Mostly Cloudy
11:54 AM 77.0 °F - 68.0 °F 74% 30.06 in 10.0 mi NNE 12.7 mph - N/A   Mostly Cloudy
12:27 PM 77.0 °F - 69.1 °F 76% 30.06 in 10.0 mi NNE 12.7 mph - N/A   Overcast
12:54 PM 77.0 °F - 69.1 °F 76% 30.06 in 10.0 mi NNE 10.4 mph - N/A   Overcast
1:54 PM 78.1 °F - 69.1 °F 74% 30.04 in 10.0 mi NNE 6.9 mph - N/A   Partly Cloudy
2:54 PM 81.0 °F 84.1 °F 69.1 °F 67% 30.02 in 10.0 mi North 5.8 mph - N/A   Partly Cloudy
3:54 PM 82.0 °F 86.3 °F 71.1 °F 69% 30.01 in 10.0 mi North 8.1 mph - N/A   Clear
4:54 PM 82.0 °F 85.9 °F 70.0 °F 67% 29.99 in 10.0 mi Variable 6.9 mph - N/A   Partly Cloudy
5:54 PM 81.0 °F 84.1 °F 69.1 °F 67% 29.99 in 10.0 mi North 9.2 mph - N/A   Partly Cloudy
6:54 PM 79.0 °F - 69.1 °F 72% 29.98 in 10.0 mi NNE 12.7 mph - N/A   Mostly Cloudy
7:54 PM 75.0 °F - 69.1 °F 82% 29.99 in 10.0 mi NNE 11.5 mph - N/A   Clear
8:54 PM 73.0 °F - 70.0 °F 90% 30.02 in 10.0 mi NNE 10.4 mph - N/A   Mostly Cloudy
9:54 PM 73.0 °F - 70.0 °F 90% 30.03 in 10.0 mi North 12.7 mph - N/A   Mostly Cloudy
10:04 PM 73.0 °F - 70.0 °F 90% 30.03 in 10.0 mi NNE 11.5 mph - N/A   Overcast
10:16 PM 73.0 °F - 70.0 °F 90% 30.03 in 10.0 mi North 10.4 mph - N/A   Overcast
10:54 PM 72.0 °F - 70.0 °F 93% 30.04 in 10.0 mi NNE 11.5 mph - N/A   Overcast
11:54 PM 72.0 °F - 70.0 °F 93% 30.05 in 10.0 mi North 9.2 mph - N/A   Overcast